Weather History for Dutch Harbor, AK

Change the Weather History Date:

Friday, December 14, 2012

  Actual Average Record
Temperature  
Mean Temperature 36 °F -  
Max Temperature 39 °F 37 °F 44 °F (1984)
Min Temperature 32 °F 29 °F 14 °F (1992)
Degree Days  
Heating Degree Days 30    
Moisture  
Dew Point 28 °F    
Average Humidity 75    
Maximum Humidity 93    
Minimum Humidity 56    
Precipitation  
Precipitation 0.05 in - - ()
Sea Level Pressure  
Sea Level Pressure 29.65 in    
Wind  
Wind Speed 16 mph (West)    
Max Wind Speed 32 mph    
Max Gust Speed 41 mph    
Visibility 6 miles    
Events Rain , Snow    
Averages and records for this station are not official NWS values.
T = Trace of Precipitation, MM = Missing Value Source: NWS Daily Summary

Daily Weather History Graph

Daily Weather History Graph

Search for Another Location

Airport:

Trip Planner

Search our weather history database for the weather conditions in past years. The results will help you decide how hot, cold, wet, or windy it might be!

Date:

Astronomy

Dec. 14, 2012 Rise Set
Actual Time 10:18 AM AKST 5:44 PM AKST
Civil Twilight 9:34 AM AKST 6:27 PM AKST
Nautical Twilight 8:48 AM AKST 7:13 PM AKST
Astronomical Twilight 8:05 AM AKST 7:57 PM AKST
Moon 11:23 AM AKST (12/14) 8:04 PM AKST (12/14)
Length of Visible Light 8h 53m
Length of Day
7h 26m
Waxing Crescent, 3% of the Moon is Illuminated
Dec 14
Waxing Crescent
Dec 19
First Quarter
Dec 28
Full
Jan 4
Last Quarter
Jan 11
New

Hourly Weather History & Observations

Time (AKST) Temp. Windchill Dew Point Humidity Pressure Visibility Wind Dir Wind Speed Gust Speed Precip Events Conditions
12:56 AM 39.9 °F 32.9 °F 30.0 °F 68% 29.50 in 9.0 mi WSW 11.5 mph - 0.00 in Rain Light Rain
1:03 AM 37.4 °F 28.5 °F 32.0 °F 81% 29.49 in 6.0 mi West 15.0 mph 19.6 mph 0.00 in Rain Light Rain
1:47 AM 39.2 °F 29.3 °F 30.2 °F 70% 29.47 in 10.0 mi SSW 20.7 mph 34.5 mph 0.00 in Rain Light Rain
1:56 AM 37.9 °F 30.9 °F 30.9 °F 76% 29.50 in 8.0 mi WSW 10.4 mph 27.6 mph 0.00 in Rain Light Rain
2:22 AM 39.2 °F 31.6 °F 28.4 °F 65% 29.47 in 10.0 mi WSW 12.7 mph 23.0 mph 0.00 in   Overcast
2:56 AM 39.0 °F 31.0 °F 28.9 °F 67% 29.49 in 9.0 mi WSW 13.8 mph 20.7 mph 0.00 in Rain Light Rain
3:21 AM 37.4 °F 28.5 °F 32.0 °F 81% 29.49 in 9.0 mi WNW 15.0 mph 26.5 mph 0.01 in Rain Light Rain
3:56 AM 37.9 °F 30.9 °F 30.0 °F 73% 29.52 in 10.0 mi West 10.4 mph 20.7 mph 0.01 in Rain Light Rain
4:17 AM 37.4 °F 31.4 °F 30.2 °F 75% 29.51 in 10.0 mi WSW 8.1 mph - 0.00 in Rain Light Rain
4:56 AM 37.9 °F 26.1 °F 28.9 °F 70% 29.54 in 10.0 mi West 27.6 mph 33.4 mph 0.00 in Rain Light Rain
5:56 AM 37.9 °F 28.9 °F 28.0 °F 68% 29.54 in 10.0 mi WSW 16.1 mph 21.9 mph 0.00 in Rain Light Rain
6:17 AM 37.4 °F 26.6 °F 28.4 °F 70% 29.53 in 10.0 mi West 21.9 mph 28.8 mph 0.01 in Rain , Snow Light Rain
6:56 AM 37.9 °F 27.6 °F 28.0 °F 68% 29.56 in 10.0 mi West 20.7 mph 27.6 mph 0.01 in Rain , Snow Light Rain
7:56 AM 37.9 °F 27.9 °F 27.0 °F 65% 29.58 in 10.0 mi West 19.6 mph - 0.00 in Rain , Snow Light Rain
8:56 AM 36.0 °F 28.0 °F 28.0 °F 73% 29.60 in 10.0 mi SW 11.5 mph - 0.00 in Rain , Snow Light Rain
9:42 AM 35.6 °F 22.5 °F 28.4 °F 75% 29.61 in 1.5 mi West 29.9 mph 34.5 mph 0.00 in Rain , Snow Light Rain
9:56 AM 36.0 °F 26.0 °F 28.0 °F 73% 29.63 in 6.0 mi WSW 17.3 mph 29.9 mph N/A Rain , Snow Light Rain
10:10 AM 35.6 °F 25.9 °F 28.4 °F 75% 29.62 in 8.0 mi SW 16.1 mph 24.2 mph N/A Rain , Snow Light Rain
10:15 AM 35.6 °F 26.2 °F 28.4 °F 75% 29.62 in 6.0 mi SW 15.0 mph 23.0 mph N/A Rain , Snow Light Rain
10:29 AM 35.6 °F 24.5 °F 26.6 °F 70% 29.62 in 8.0 mi WSW 20.7 mph 29.9 mph N/A Rain , Snow Light Rain
10:56 AM 36.0 °F 27.1 °F 26.1 °F 67% 29.64 in 8.0 mi WSW 13.8 mph 23.0 mph N/A Rain , Snow Light Rain
11:06 AM 35.6 °F 23.4 °F 28.4 °F 75% 29.64 in 4.0 mi WNW 25.3 mph 29.9 mph N/A Snow Light Snow
11:07 AM 35.6 °F 23.4 °F 28.4 °F 75% 29.64 in 3.0 mi WNW 25.3 mph 33.4 mph N/A Snow Light Snow
11:12 AM 35.6 °F 22.1 °F 28.4 °F 75% 29.65 in 2.0 mi WNW 32.2 mph 39.1 mph N/A Snow Light Snow
11:25 AM 33.8 °F 21.6 °F 26.6 °F 75% 29.65 in 6.0 mi West 23.0 mph 41.4 mph N/A Snow Light Snow
11:27 AM 33.8 °F 21.3 °F 26.6 °F 75% 29.64 in 8.0 mi West 24.2 mph 39.1 mph N/A Snow Light Snow
11:50 AM 35.6 °F 24.8 °F 24.8 °F 65% 29.64 in 8.0 mi West 19.6 mph 24.2 mph N/A Snow Light Snow
11:56 AM 37.0 °F 26.7 °F 23.0 °F 57% 29.66 in 8.0 mi West 19.6 mph 26.5 mph N/A Snow Light Snow
12:08 PM 37.4 °F 27.5 °F 23.0 °F 56% 29.64 in 10.0 mi West 18.4 mph 25.3 mph N/A Snow Light Snow
12:09 PM 37.4 °F 26.6 °F 23.0 °F 56% 29.64 in 8.0 mi West 21.9 mph 28.8 mph N/A Snow Light Snow
12:14 PM 37.4 °F 26.1 °F 24.8 °F 60% 29.65 in 8.0 mi West 24.2 mph 33.4 mph N/A Snow Light Snow
12:56 PM 36.0 °F 23.5 °F 26.1 °F 67% 29.66 in 8.0 mi WSW 27.6 mph 32.2 mph N/A Snow Light Snow
1:08 PM 35.6 °F 24.8 °F 26.6 °F 70% 29.65 in 8.0 mi WSW 19.6 mph 31.1 mph N/A Snow Light Snow
1:14 PM 35.6 °F 24.2 °F 28.4 °F 75% 29.66 in 1.5 mi West 21.9 mph 26.5 mph N/A Snow Light Snow
1:20 PM 35.6 °F 24.5 °F 28.4 °F 75% 29.66 in 5.0 mi WSW 20.7 mph 26.5 mph N/A Snow Light Snow
1:56 PM 34.0 °F 23.4 °F 25.0 °F 70% 29.68 in 10.0 mi SW 17.3 mph 21.9 mph N/A Snow Light Snow
1:57 PM 33.8 °F 23.5 °F 24.8 °F 70% 29.66 in 10.0 mi SW 16.1 mph 21.9 mph N/A Snow Light Snow
1:58 PM 33.8 °F 23.9 °F 24.8 °F 70% 29.65 in 10.0 mi SW 15.0 mph 21.9 mph N/A Snow Light Snow
2:44 PM 33.8 °F 24.3 °F 28.4 °F 81% 29.67 in 4.0 mi WNW 13.8 mph 32.2 mph N/A Snow Light Snow
2:56 PM 34.0 °F 25.5 °F 27.0 °F 75% 29.69 in 3.0 mi West 11.5 mph 18.4 mph N/A Snow Light Snow
3:14 PM 35.6 °F 24.5 °F 24.8 °F 65% 29.66 in 6.0 mi West 20.7 mph 33.4 mph N/A Snow Light Snow
3:56 PM 36.0 °F 25.6 °F 24.1 °F 62% 29.68 in 9.0 mi WSW 18.4 mph 34.5 mph N/A Snow Light Snow
4:15 PM 35.6 °F 23.0 °F 28.4 °F 75% 29.68 in 3.0 mi WNW 27.6 mph 34.5 mph N/A Snow Light Snow
4:18 PM 33.8 °F 20.5 °F 28.4 °F 81% 29.68 in 0.2 mi WNW 27.6 mph 34.5 mph N/A Snow Heavy Snow
4:31 PM 33.8 °F 25.8 °F 28.4 °F 81% 29.67 in 7.0 mi SW 10.4 mph 24.2 mph N/A Snow Light Snow
4:56 PM 35.1 °F 24.5 °F 26.1 °F 70% 29.70 in 7.0 mi West 18.4 mph 28.8 mph N/A Snow Light Snow
4:59 PM 35.6 °F 24.8 °F 26.6 °F 70% 29.68 in 4.0 mi WNW 19.6 mph 25.3 mph N/A Snow Light Snow
5:11 PM 33.8 °F 23.5 °F 28.4 °F 81% 29.69 in 3.0 mi West 16.1 mph 21.9 mph N/A Snow Light Snow
5:28 PM 33.8 °F 23.9 °F 28.4 °F 81% 29.69 in 1.5 mi WNW 15.0 mph - N/A Snow Light Snow
5:56 PM 33.1 °F 21.2 °F 28.9 °F 85% 29.72 in 1.5 mi NW 20.7 mph 24.2 mph N/A Snow Light Snow
6:04 PM 33.8 °F 24.8 °F 30.2 °F 87% 29.70 in 6.0 mi West 12.7 mph - N/A Snow Light Snow
6:28 PM 35.6 °F 25.2 °F 24.8 °F 65% 29.69 in 5.0 mi WSW 18.4 mph 25.3 mph N/A Snow Light Snow
6:56 PM 36.0 °F 23.7 °F 24.1 °F 62% 29.71 in 5.0 mi WSW 26.5 mph 32.2 mph N/A Snow Light Snow
6:58 PM 35.6 °F 23.2 °F 24.8 °F 65% 29.70 in 4.0 mi WSW 26.5 mph 32.2 mph 0.00 in Snow Light Snow
7:08 PM 33.8 °F 25.8 °F 28.4 °F 81% 29.69 in 1.8 mi WSW 10.4 mph - 0.00 in Snow Light Snow
7:14 PM 33.8 °F 28.6 °F 28.4 °F 81% 29.69 in 3.0 mi Variable 5.8 mph - 0.00 in Snow Light Snow
7:19 PM 32.0 °F 26.4 °F 26.6 °F 80% 29.70 in 8.0 mi SW 5.8 mph - 0.00 in Snow Light Snow
7:36 PM 33.8 °F 27.7 °F 28.4 °F 81% 29.71 in 5.0 mi Variable 6.9 mph - 0.00 in Snow Light Snow
7:38 PM 33.8 °F 27.0 °F 28.4 °F 81% 29.71 in 4.0 mi West 8.1 mph - 0.00 in Snow Light Snow
7:44 PM 33.8 °F 27.7 °F 28.4 °F 81% 29.72 in 5.0 mi West 6.9 mph - 0.00 in Snow Light Snow
7:46 PM 33.8 °F 28.6 °F 28.4 °F 81% 29.72 in 6.0 mi West 5.8 mph - 0.00 in Snow Light Snow
7:56 PM 33.1 °F 26.1 °F 28.9 °F 85% 29.74 in 6.0 mi West 8.1 mph - 0.00 in Snow Light Snow
8:22 PM 33.8 °F 24.8 °F 28.4 °F 81% 29.73 in 3.0 mi NW 12.7 mph - 0.00 in Snow Light Snow
8:25 PM 33.8 °F 25.8 °F 28.4 °F 81% 29.73 in 1.8 mi NW 10.4 mph - 0.00 in Snow Light Snow
8:29 PM 32.0 °F 23.6 °F 28.4 °F 87% 29.73 in 1.2 mi NW 10.4 mph - 0.00 in Snow Light Snow
8:43 PM 32.0 °F 25.6 °F 30.2 °F 93% 29.73 in 0.8 mi West 6.9 mph - 0.00 in Snow Light Snow
8:56 PM 32.0 °F - 28.9 °F 88% 29.75 in 1.0 mi Calm Calm - 0.01 in Snow Light Snow
8:58 PM 32.0 °F - 28.4 °F 87% 29.73 in 1.5 mi Calm Calm - 0.00 in Snow Light Snow
9:02 PM 32.0 °F - 28.4 °F 87% 29.73 in 3.0 mi Calm Calm - 0.00 in Snow Light Snow
9:15 PM 32.0 °F 27.5 °F 28.4 °F 87% 29.73 in 10.0 mi East 4.6 mph - 0.01 in   Overcast
9:56 PM 32.0 °F 28.7 °F 28.9 °F 88% 29.75 in 10.0 mi SSW 3.5 mph - 0.02 in   Overcast
10:11 PM 32.0 °F 26.4 °F 28.4 °F 87% 29.73 in 10.0 mi SSE 5.8 mph - 0.00 in   Overcast
10:39 PM 32.0 °F 28.7 °F 28.4 °F 87% 29.74 in 10.0 mi SE 3.5 mph - 0.00 in   Overcast
10:56 PM 32.0 °F 23.0 °F 28.0 °F 85% 29.77 in 6.0 mi WNW 11.5 mph 17.3 mph 0.00 in Snow Light Snow
11:33 PM 32.0 °F 27.5 °F 28.4 °F 87% 29.76 in 10.0 mi SSW 4.6 mph - 0.00 in   Mostly Cloudy
11:56 PM 32.0 °F 27.5 °F 28.0 °F 85% 29.78 in 10.0 mi SW 4.6 mph - 0.00 in   Mostly Cloudy